Regional Weather Roundup
Issued by NWS

Home | Current Version | Previous Version | Graphics & Text | Print | Product List | Glossary On
Versions: 1 2 3 4 5 6 7 8 9 10 11 12 13 14 15 16 17 18 19 20 21 22 23 24 25 26 27 28 29 30 31 32 33 34 35 36 37 38 39 40 41 42 43 44 45 46 47 48 49 50
000
ASUS45 KABQ 302110
RWRNM
NEW MEXICO REGIONAL WEATHER ROUNDUP
NATIONAL WEATHER SERVICE ALBUQUERQUE NM
300 PM MDT THU JUL 30 2015

NOTE: "FAIR" MEANS FEW OR NO CLOUDS BELOW 12,000 FEET AGL WITH NO
       SIGNIFICANT WEATHER OR OBSTRUCTIONS TO VISION.

      THIS PRODUCT IS RELEASED AS TWO VERSIONS.  ONE VERSION NEAR
      THE TOP OF THE HOUR CONTAINING PRELIMINARY DATA FROM ALBUQUERQUE
      AND OTHER STATIONS.  A FINAL VERSION WITH ADDITIONAL DATA IS
      ISSUED ABOUT 10 MINUTES AFTER THE HOUR.

NMZ501-503-504-510>518-302200-
NORTHWEST PLATEAU/NORTHCENTRAL MOUNTAINS

CITY           SKY/WX    TMP DP  RH WIND       PRES   REMARKS
FARMINGTON     SUNNY     87  52  29 SW9       30.28F
LOS ALAMOS     CLOUDY    67  55  63 CALM      30.47F
SANTA FE       CLOUDY    72  54  53 CALM      30.40F
TAOS           CLOUDY    73  48  40 SE7       30.45F
ANGEL FIRE     CLOUDY    69  52  55 N3        30.53F

$$
NMZ402-403-502-505>509-302200-
WESTCENTRAL MOUNTAINS/SOUTHWEST MOUNTAINS

CITY           SKY/WX    TMP DP  RH WIND       PRES   REMARKS
GALLUP         LGT RAIN  66  57  72 SE10      30.40S
GRANTS         PTSUNNY   71  57  62 S3        30.43F
SILVER CITY      N/A     79  57  47 E6        30.33F

$$
NMZ407-409-411-412-302200-
SOUTHERN DESERTS

CITY           SKY/WX    TMP DP  RH WIND       PRES   REMARKS
LORDSBURG      FAIR      84  63  48 E8        30.22F
DEMING         FAIR      85  59  41 NE7       30.23F
LAS CRUCES     FAIR      80  61  53 CALM      30.26F
ALAMOGORDO     MOSUNNY   84  59  42 CALM      30.24S
T OR C         FAIR      81  61  50 MISG      30.26F

$$
NMZ519>523-302200-
CENTRAL VALLEYS/CENTRAL HIGHLANDS

CITY           SKY/WX    TMP DP  RH WIND       PRES   REMARKS
ALBUQUERQUE    PTSUNNY   77  58  51 E15       30.34F
DOUBLE EAGLE   PTSUNNY   75  59  57 N6        30.37F
MORIARTY ARPT    N/A     75  57  53 E5        30.40F
CLINES CORNERS LGT RAIN  72  55  55 CALM      30.43F
BELEN          MOCLDY    81  55  39 E6        30.32F
SOCORRO        FAIR      82  55  39 E3        30.28F

$$
NMZ524>526-539-540-302200-
SOUTHCENTRAL MOUNTAINS

CITY           SKY/WX    TMP DP  RH WIND       PRES   REMARKS
RUIDOSO          N/A    N/A N/A N/A MISG        N/A

$$
NMZ527>531-302200-
NORTHEAST HIGHLANDS/NORTHEAST PLAINS

CITY           SKY/WX    TMP DP  RH WIND       PRES   REMARKS
LAS VEGAS      CLOUDY    71  56  58 S8        30.44F
RATON          CLOUDY    73  55  53 S9        30.40F
CLAYTON        CLOUDY    75  59  57 S14       30.34F

$$
NMZ532>537-302200-
EASTCENTRAL PLAINS

CITY           SKY/WX    TMP DP  RH WIND       PRES   REMARKS
TUCUMCARI      PTSUNNY   83  61  47 MISG      30.28F
CANNON AFB     NOT AVBL
CLOVIS AIRPORT MOSUNNY   84  63  48 E7        30.29F

$$
NMZ028-029-538-302200-
SOUTHEAST PLAINS

CITY           SKY/WX    TMP DP  RH WIND       PRES   REMARKS
ROSWELL        MOSUNNY   92  55  28 SE15G22   30.19F
ARTESIA        SUNNY     93  57  29 E8G22     30.18F
CARLSBAD       SUNNY     96  56  26 E9G17     30.14F
HOBBS          MOSUNNY   91  55  29 E14       30.20F


$$



USA.gov is the U.S. government's official web portal to all federal, state and local government web resources and services.